Weather History for Jefferson, NC

Change the Weather History Date:

Tuesday, May 14, 2013

  Actual Average Record
Temperature  
Mean Temperature 52 °F -  
Max Temperature 69 °F 72 °F 83 °F (1970)
Min Temperature 34 °F 46 °F 34 °F (2013)
Degree Days  
Heating Degree Days 14    
Growing Degree Days 2 (Base 50)    
Moisture  
Dew Point 30 °F    
Average Humidity 44    
Maximum Humidity 78    
Minimum Humidity 23    
Precipitation  
Precipitation 0.00 in - - ()
Sea Level Pressure  
Sea Level Pressure 30.17 in    
Wind  
Wind Speed 4 mph (WSW)    
Max Wind Speed 14 mph    
Max Gust Speed 18 mph    
Visibility 10 miles    
Events      
Averages and records for this station are not official NWS values.
T = Trace of Precipitation, MM = Missing Value Source: NWS Daily Summary

Daily Weather History Graph

Daily Weather History Graph

Search for Another Location

Airport:

Trip Planner

Search our weather history database for the weather conditions in past years. The results will help you decide how hot, cold, wet, or windy it might be!

Date:

Astronomy

May. 14, 2013 Rise Set
Actual Time 6:19 AM EDT 8:24 PM EDT
Civil Twilight 5:50 AM EDT 8:53 PM EDT
Nautical Twilight 5:15 AM EDT 9:28 PM EDT
Astronomical Twilight 4:38 AM EDT 10:06 PM EDT
Moon 9:57 AM EDT (5/14) No Moon Set
Length of Visible Light 15h 02m
Length of Day
14h 05m
Waxing Crescent, 19% of the Moon is Illuminated
May 14
Waxing Crescent
May 18
First Quarter
May 25
Full
May 31
Last Quarter
Jun 8
New

Hourly Weather History & Observations

Time (EDT) Temp. Windchill Dew Point Humidity Pressure Visibility Wind Dir Wind Speed Gust Speed Precip Events Conditions
12:15 AM 46.4 °F 44.3 °F 22.3 °F 39% 30.19 in 10.0 mi NW 4.6 mph - N/A   Clear
12:35 AM 46.0 °F 42.5 °F 22.5 °F 39% 30.18 in 10.0 mi NW 6.9 mph - N/A   Clear
12:55 AM 45.3 °F 43.0 °F 23.0 °F 41% 30.18 in 10.0 mi NW 4.6 mph - N/A   Clear
1:15 AM 45.1 °F - 23.2 °F 42% 30.18 in 10.0 mi Calm Calm - N/A   Clear
1:35 AM 43.5 °F - 23.7 °F 46% 30.18 in 10.0 mi Calm Calm - N/A   Clear
1:55 AM 42.3 °F - 23.9 °F 48% 30.18 in 10.0 mi Calm Calm - N/A   Clear
2:15 AM 44.4 °F - 23.7 °F 44% 30.18 in 10.0 mi Calm Calm - N/A   Clear
2:35 AM 44.4 °F - 23.4 °F 43% 30.19 in 10.0 mi Calm Calm - N/A   Clear
2:55 AM 43.9 °F - 23.5 °F 45% 30.19 in 10.0 mi Calm Calm - N/A   Clear
3:15 AM 42.3 °F - 24.4 °F 49% 30.19 in 10.0 mi Calm Calm - N/A   Clear
3:35 AM 40.8 °F - 25.0 °F 53% 30.20 in 10.0 mi Calm Calm - N/A   Clear
3:55 AM 41.5 °F 39.6 °F 25.2 °F 52% 30.20 in 10.0 mi SW 3.5 mph - N/A   Clear
4:15 AM 40.3 °F - 26.1 °F 57% 30.20 in 10.0 mi Calm Calm - N/A   Clear
4:35 AM 39.6 °F - 25.9 °F 58% 30.20 in 10.0 mi Calm Calm - N/A   Clear
4:55 AM 38.1 °F - 26.6 °F 63% 30.20 in 10.0 mi Calm Calm - N/A   Clear
5:15 AM 38.3 °F 34.8 °F 26.6 °F 63% 30.20 in 10.0 mi WSW 4.6 mph - N/A   Clear
5:35 AM 39.0 °F 34.8 °F 26.2 °F 60% 30.20 in 10.0 mi West 5.8 mph - N/A   Clear
5:55 AM 39.2 °F 35.9 °F 26.1 °F 59% 30.21 in 10.0 mi WSW 4.6 mph - N/A   Clear
6:15 AM 37.9 °F - 26.6 °F 64% 30.21 in 10.0 mi Calm Calm - N/A   Clear
6:35 AM 34.0 °F - 27.9 °F 78% 30.21 in 10.0 mi Calm Calm - N/A   Clear
6:55 AM 37.0 °F - 27.7 °F 69% 30.22 in 10.0 mi Calm Calm - N/A   Clear
7:15 AM 35.8 °F - 29.5 °F 78% 30.22 in 10.0 mi Calm Calm - N/A   Clear
7:35 AM 37.9 °F - 29.5 °F 72% 30.22 in 10.0 mi Calm Calm - N/A   Clear
7:55 AM 39.0 °F - 30.7 °F 72% 30.22 in 10.0 mi Calm Calm - N/A   Clear
8:15 AM 41.4 °F - 31.3 °F 67% 30.23 in 10.0 mi Calm Calm - N/A   Clear
8:35 AM 45.1 °F - 33.4 °F 64% 30.23 in 10.0 mi Calm Calm - N/A   Clear
8:55 AM 45.9 °F - 32.7 °F 60% 30.23 in 10.0 mi Calm Calm - N/A   Clear
9:15 AM 49.8 °F - 34.2 °F 55% 30.23 in 10.0 mi Calm Calm - N/A   Clear
9:35 AM 51.6 °F - 26.2 °F 37% 30.23 in 10.0 mi WNW 5.8 mph - N/A   Clear
9:55 AM 52.2 °F - 25.7 °F 36% 30.22 in 10.0 mi West 13.8 mph 17.3 mph N/A   Clear
10:15 AM 52.7 °F - 24.8 °F 34% 30.22 in 10.0 mi West 10.4 mph 16.1 mph N/A   Clear
10:35 AM 53.8 °F - 24.1 °F 32% 30.23 in 10.0 mi West 13.8 mph 17.3 mph N/A   Clear
10:55 AM 55.6 °F - 23.5 °F 29% 30.23 in 10.0 mi West 10.4 mph - N/A   Clear
11:15 AM 55.4 °F - 23.7 °F 29% 30.23 in 10.0 mi WSW 8.1 mph - N/A   Clear
11:35 AM 56.7 °F - 23.2 °F 27% 30.22 in 10.0 mi WSW 8.1 mph 17.3 mph N/A   Clear
11:55 AM 57.6 °F - 24.3 °F 28% 30.21 in 10.0 mi West 8.1 mph - N/A   Clear
12:15 PM 59.7 °F - 24.8 °F 26% 30.21 in 10.0 mi WSW 6.9 mph - N/A   Clear
12:35 PM 60.4 °F - 23.0 °F 24% 30.21 in 10.0 mi WSW 5.8 mph 18.4 mph N/A   Clear
12:55 PM 61.2 °F - 22.6 °F 23% 30.20 in 10.0 mi West 4.6 mph - N/A   Clear
1:15 PM 62.1 °F - 23.4 °F 23% 30.20 in 10.0 mi West 9.2 mph - N/A   Clear
1:35 PM 63.7 °F - 27.5 °F 25% 30.19 in 10.0 mi SSW 5.8 mph - N/A   Clear
1:55 PM 64.6 °F - 27.1 °F 24% 30.18 in 10.0 mi WSW 9.2 mph 16.1 mph N/A   Clear
2:15 PM 64.6 °F - 27.9 °F 25% 30.17 in 10.0 mi West 8.1 mph - N/A   Clear
2:35 PM 65.7 °F - 30.2 °F 27% 30.17 in 10.0 mi WSW 6.9 mph - N/A   Scattered Clouds
2:55 PM 64.8 °F - 36.5 °F 35% 30.15 in 10.0 mi SE 6.9 mph - N/A   Scattered Clouds
3:15 PM 63.5 °F - 36.5 °F 37% 30.14 in 10.0 mi ESE 4.6 mph - N/A   Clear
3:35 PM 65.3 °F - 34.3 °F 32% 30.14 in 10.0 mi SW 4.6 mph - N/A   Clear
3:55 PM 66.4 °F - 36.3 °F 33% 30.13 in 10.0 mi Calm Calm - N/A   Clear
4:15 PM 66.4 °F - 38.5 °F 36% 30.12 in 10.0 mi South 4.6 mph - N/A   Clear
4:35 PM 68.4 °F - 31.8 °F 26% 30.12 in 10.0 mi SW 5.8 mph - N/A   Clear
4:55 PM 68.2 °F - 32.0 °F 26% 30.12 in 10.0 mi West 8.1 mph - N/A   Scattered Clouds
5:15 PM 69.1 °F - 30.6 °F 24% 30.13 in 10.0 mi WSW 9.2 mph 18.4 mph N/A   Scattered Clouds
5:35 PM 68.9 °F - 30.7 °F 24% 30.13 in 10.0 mi WSW 5.8 mph - N/A   Scattered Clouds
5:55 PM 68.7 °F - 32.7 °F 26% 30.13 in 10.0 mi WSW 10.4 mph 17.3 mph N/A   Clear
6:15 PM 68.4 °F - 34.5 °F 29% 30.13 in 10.0 mi West 11.5 mph 17.3 mph N/A   Clear
6:35 PM 67.8 °F - 36.3 °F 31% 30.12 in 10.0 mi SW 8.1 mph - N/A   Clear
6:55 PM 67.1 °F - 38.1 °F 34% 30.11 in 10.0 mi WSW 9.2 mph - N/A   Scattered Clouds
7:15 PM 66.9 °F - 39.0 °F 36% 30.10 in 10.0 mi WSW 9.2 mph 17.3 mph N/A   Scattered Clouds
7:35 PM 66.4 °F - 39.4 °F 37% 30.10 in 10.0 mi SW 5.8 mph 16.1 mph N/A   Mostly Cloudy
7:55 PM 63.7 °F - 40.3 °F 42% 30.10 in 10.0 mi SSE 4.6 mph - N/A   Mostly Cloudy
8:15 PM 60.4 °F - 40.3 °F 47% 30.10 in 10.0 mi SE 5.8 mph - N/A   Overcast
8:35 PM 58.5 °F - 40.1 °F 51% 30.10 in 10.0 mi SE 5.8 mph - N/A   Overcast
8:55 PM 57.9 °F - 39.7 °F 51% 30.10 in 10.0 mi SE 4.6 mph - N/A   Scattered Clouds
9:15 PM 55.6 °F - 40.5 °F 57% 30.10 in 10.0 mi SSE 4.6 mph - N/A   Scattered Clouds
9:35 PM 55.8 °F - 40.3 °F 56% 30.10 in 10.0 mi Calm Calm - N/A   Scattered Clouds
9:55 PM 55.4 °F - 40.3 °F 57% 30.11 in 10.0 mi Calm Calm - N/A   Scattered Clouds
10:15 PM 54.5 °F - 40.6 °F 60% 30.11 in 10.0 mi Calm Calm - N/A   Scattered Clouds
10:35 PM 55.4 °F - 40.1 °F 56% 30.11 in 10.0 mi SE 3.5 mph - N/A   Scattered Clouds
10:55 PM 54.7 °F - 40.5 °F 59% 30.11 in 10.0 mi Calm Calm - N/A   Clear
11:15 PM 54.5 °F - 40.5 °F 59% 30.11 in 10.0 mi ESE 3.5 mph - N/A   Clear
11:35 PM 53.6 °F - 40.6 °F 62% 30.10 in 10.0 mi SE 3.5 mph - N/A   Clear